レオナード彗星

P/2017 Y3 ( Leonard )

English version
Home page
Updated on June 25, 2018

---------------------------------------------------------------------

・ プロフィール

発見日 2017年12月26日
発見光度 19.8等
発見者 G. J. Leonard (Mount Lemmon)

・ 写真集

・ 軌道要素

Epoch 2018 Feb. 11.0 TT = JDT 2458160.5
T 2018 Feb. 11.26068 TT                                 MPCW
q   1.2753765            (2000.0)            P               Q
n   0.03182561     Peri.   67.52922     -0.70381724     +0.68048537
a   9.8616948      Node   153.87386     -0.69046039     -0.72279288
e   0.8706737      Incl.   27.58564     +0.16705015     -0.12045793
P  30.97
From 79 observations 2017 Dec. 26-2018 Apr. 22, mean residual 0".6.

・ 光度変化

        m1 = 16.0 + 5 logΔ + 10.0 log r

---------------------------------------------------------------------

軌道要素はM.P.E.C. 2018-H105に掲載されたものです。
光度グラフはComet for Windowsで作成したものです。

---------------------------------------------------------------------

Copyright(C) Seiichi Yoshida (comet@aerith.net). All rights reserved.